Regional & State Weather Roundups


177 
ASUS41 KLWX 010010
RWRLWX
REGIONAL WEATHER ROUNDUP
NATIONAL WEATHER SERVICE BALTIMORE MD/WASHINGTON DC
800 PM EDT FRI OCT 31 2014
Note: "FAIR" indicates few or no clouds below 12,000 feet
with no significant weather and/or obstructions to visibility.
 TC=TEMPERATURE CELSIUS
 * =Non NWS site. Station does not report precipitation (e.g. rain,
    snow, etc.), thunder, or fog.
DCZ001-MDZ009-015-VAZ040>042-051-053>054-010100-
WASHINGTON METRO
  
CITY           SKY/WX    TMP DP  RH WIND       PRES   REMARKS
WASHINGTON NAT MOCLDY    54  35  48 E7        29.86F                  
DULLES         CLOUDY    48  35  60 NE5       29.86F                  
ANDREWS AFB    CLOUDY    45  35  67 N2        29.85F                  
FT BELVOIR     CLEAR     43  38  84 CALM      29.86F                  
QUANTICO       CLOUDY    51  37  58 N6        29.86F                  
COLLEGE PARK*  CLOUDY    50  41  71 CALM      29.86S                  
LEESBURG*      CLOUDY    50  37  62 CALM      29.87F                  
GAITHERSBURG*  CLOUDY    46  36  66 CALM      29.90S                  
$$
MDZ006>007-011-014-010100-
BALTIMORE METRO
  
CITY           SKY/WX    TMP DP  RH WIND       PRES   REMARKS
BWI AIRPORT    MOCLDY    48  37  65 CALM      29.86F                  
MD SCIENCE CTR   N/A     53  34  48 MISG      29.87S                  
MARTIN STATE   PTCLDY    52  41  66 CALM      29.89S                  
ANNAPOLIS      PTCLDY    52  39  61 NE5       29.86S                  
FORT MEADE*    CLOUDY    45  37  76 CALM      29.89S                  
$$
MDZ012-015-019>023-010100-
MARYLAND EASTERN SHORE
  
CITY           SKY/WX    TMP DP  RH WIND       PRES   REMARKS
OCEAN CITY     MOCLDY    49  42  77 N7        29.82F                  
SALISBURY      CLOUDY    52  41  66 N7        29.83F                  
BAY BRIDGE AP*   N/A     50  37  62 NE3       29.86F                  
CAMBRIDGE*     CLEAR     52  41  66 NE3       29.84F                  
EASTON*        CLEAR     46  39  76 N6        29.89F                  
$$
MDZ017>025-010100-
SOUTHERN MARYLAND
  
CITY           SKY/WX    TMP DP  RH WIND       PRES   REMARKS
PATUXENT RIVER PTCLDY    50  37  61 N8        29.84F                  
ST INIGOES     CLEAR     50  37  61 CALM      29.83F                  
LEONARDTOWN*   CLEAR     43  34  70 CALM      29.86F                  
$$
MDZ003>005-010100-
NORTH CENTRAL MARYLAND
  
CITY           SKY/WX    TMP DP  RH WIND       PRES   REMARKS
FREDERICK*     CLOUDY    52  37  58 CALM      29.90S                  
HAGERSTOWN APT CLOUDY    50  35  56 N3        29.87S                  
WESTMINSTER*   CLOUDY    48  34  57 CALM      29.87S                  
$$
MDZ501>502-010100-
WESTERN MARYLAND
  
CITY           SKY/WX    TMP DP  RH WIND       PRES   REMARKS
OAKLAND*       CLOUDY    36 N/A N/A CALM      29.82S FOG              
CUMBERLAND*    CLOUDY    48  39  71 CALM      29.90S                  
$$
VAZ025>031-010100-
SHENANDOAH VALLEY
  
CITY           SKY/WX    TMP DP  RH WIND       PRES   REMARKS
WINCHESTER*    CLOUDY    50  32  50 E6        29.85F                  
FRONT ROYAL*   CLOUDY    46  37  71 CALM      29.84S                  
LURAY*         CLOUDY    50  41  71 CALM      29.84S                  
NEW MARKET*    CLOUDY    47  37  66 N3        29.83S                  
STAUNTON*      DRIZZLE   48  37  65 CALM      29.84S                  
WAYNESBORO*    CLOUDY    46  38  74 CALM      29.82S                  
$$
WVZ021-048>050-054>055-010100-
EASTERN WEST VIRGINIA PANHANDLE
  
CITY           SKY/WX    TMP DP  RH WIND       PRES   REMARKS
MARTINSBURG    CLOUDY    50  36  58 NE3       29.87S                  
PETERSBURG*    DRIZZLE   47  38  71 N5        29.86R                  
$$
VAZ036>039-050-010100-
CENTRAL FOOTHILLS
  
CITY           SKY/WX    TMP DP  RH WIND       PRES   REMARKS
CHARLOTTESVILL CLOUDY    50  39  66 N5        29.84S                  
CULPEPER*      CLOUDY    52  37  58 CALM      29.86S                  
ORANGE*        CLOUDY    50  39  66 N3        29.86S                  
GORDONSVILLE*  CLOUDY    49  39  70 CALM      29.84S                  
WARRENTON*     CLOUDY    50  43  76 CALM      29.85S                  
$$
VAZ055>057-010100-
NORTH AND CENTRAL PIEDMONT
  
CITY           SKY/WX    TMP DP  RH WIND       PRES   REMARKS
FREDERICKSBRG* PTCLDY    46  40  79 CALM      29.85S                  
STAFFORD*      PTCLDY    43  37  81 CALM      29.89S                  
$$
NCZ024-NYZ072-PAZ021-071-VAZ022-071-010100-
OTHER REGIONAL OBSERVATIONS
  
CITY           SKY/WX    TMP DP  RH WIND       PRES   REMARKS
NEW YORK CITY  CLOUDY    54  39  57 E9        29.91F                  
PHILADELPHIA   CLOUDY    51  35  54 NE13      29.88F                  
PITTSBURGH     LGT RAIN  42  40  92 NE3       29.88R                  
ROANOKE        LGT RAIN  46  43  89 W7        29.86R                  
RICHMOND       MOCLDY    51  37  58 CALM      29.84R                  
RALEIGH        CLOUDY    53  44  71 NE5       29.81F                  
$$
ANZ530>537-010100-
MARINE OBSERVATIONS
  
STATION/POSITION TIME  TEMP    WIND        PRES
                       AIR SEA DIR/SP/G
                 (UTC) (F)     (DEG/KT/KT) (MB)
THOMAS PT LIGHT  0000   52 60   60/ 11/ 13 1012.0F
BALT KEY BRIDGE  0000   53      30/  7/  8 1011.0F
COVE POINT       0000   54      20/ 12/ 15 1010.3F
LEWISETTA        0000   53 60  360/  7/ 11 1009.9F
SOLOMONS ISLAND  0000      62                N/A
PINEY POINT      0000           20/  8/ 10   N/A
$$